KATWKEGV

Guest
Details From KATW - Outagamie Co Rgnl
To KEGV - EAGLE RIVER UNION
Flight Number -
Tags generated
Created
Modified
Stats Distance 105 nm / 195 km
Max Altitude 5,100 ft / 1,554 m
Waypoints 3
Social Downloads 1
Likes 0
Share VATSIM

Download

Looking for another format? Having issues loading an existing format? Contact us
Advertisement - Login to hide

Notes

Basic altitude profile: - Ascent Rate: 2500ft/min - Ascent Speed: 250kts - Cruise Altitude: 24000ft - Cruise Speed: 320kts - Descent Rate: 1500ft/min - Descent Speed: 250kts Options: - Use NATs: yes - Use PACOTS: yes - Use low airways: yes - Use high airways: yes

Route

KATW HASAK KEGV

ID Type Via Altitude Latitude Longitude Leg Dist Tot Dist Heading (true) Name
O KATW APT - 0 ft / 0 m 44.25802˚ -88.51902˚ - 0 nm - Outagamie Co Rgnl
HASAK FIX - 5,100 ft / 1,554 m 45.54732˚ -89.10136˚ 81 nm 81 nm 342° / 342° -
O KEGV APT - 0 ft / 0 m 45.93247˚ -89.26810˚ 24 nm 105 nm 343° / 343° EAGLE RIVER UNION

Altitude Profile

Advertisement - Login to hide

KATW

Details ICAO KATW (ATW)
Name Outagamie Co Rgnl
Region United States
Timezone America/Chicago (UTC-5.0)
Stats Elevation 918 ft / 280 m (AMSL)
Location 44.258019° -88.519023°
Runways 2
Magnetic Variation 3.635° W

METAR

KATW 251045Z 21007KT 10SM SCT070 SCT120 19/14 A2987

Decode

TAF

TAF KATW 250525Z 2506/2606 19006KT P6SM BKN250 FM251500 22011G18KT P6SM SCT040 BKN200 PROB30 2523/2601 2SM +TSRA OVC025CB FM260100 24008KT P6SM SCT035 BKN070 TEMPO 2601/2605 3SM TSRA BR BKN035CB

Decode

Departure Runways

ID Width Length Bearing (true) Bearing (mag) Surface Threshold Offset Overrun Length
03 150 ft / 46 m 8,005 ft / 2,440 m 26.04° 29.67° Concrete 0 ft / 0 m 0 ft / 0 m
11 150 ft / 46 m 6,489 ft / 1,978 m 116.19° 119.82° Concrete 0 ft / 0 m 0 ft / 0 m
21 150 ft / 46 m 8,005 ft / 2,440 m 206.05° 209.68° Concrete 0 ft / 0 m 0 ft / 0 m
29 150 ft / 46 m 6,489 ft / 1,978 m 296.20° 299.83° Concrete 0 ft / 0 m 0 ft / 0 m

KEGV

Details ICAO KEGV (EGV)
Name EAGLE RIVER UNION
Region United States
Timezone America/Chicago (UTC-5.0)
Stats Elevation 1,642 ft / 500 m (AMSL)
Location 45.932465° -89.268096°
Runways 2
Magnetic Variation 3.306° W

METAR

KEGV 251135Z AUTO 00000KT 10SM BKN120 17/16 A2985 RMK AO2 T01710160

Decode

TAF

Not found

Destination Runways

ID Width Length Bearing (true) Bearing (mag) Surface Threshold Offset Overrun Length
04 76 ft / 23 m 4,996 ft / 1,523 m 45.27° 48.58° Asphalt 0 ft / 0 m 300 ft / 91 m
13 60 ft / 18 m 3,396 ft / 1,035 m 132.51° 135.82° Asphalt 0 ft / 0 m 0 ft / 0 m
22 76 ft / 23 m 4,996 ft / 1,523 m 225.28° 228.59° Asphalt 0 ft / 0 m 0 ft / 0 m
31 60 ft / 18 m 3,396 ft / 1,035 m 312.52° 315.83° Asphalt 0 ft / 0 m 0 ft / 0 m